Temperature
17 17 17 17 17 17 17 17 17 17 17 17 17 17 17 18 18 18 18 18 18 18 18 18 18 18 18 18 18 18 18 18 18 18 18 18 18 18 18 18 18 18 18
17 17 17 17 17 17 17 17 17 17 17 17 17 17 17 17 18 18 18 18 18 18 18 18 18 18 18 18 18 18 18 18 18 18 18 18 18 18 18 18 18 18 18
17 17 17 17 17 17 17 17 17 17 17 17 17 17 17 17 17 17 17 18 18 18 18 18 18 18 18 18 18 18 18 18 18 18 18 18 18 18 18 18 18 18 18
17 17 17 17 17 17 17 17 17 17 17 17 17 17 17 17 17 17 17 17 18 18 18 18 18 17 17 17 18 18 18 17 17 17 18 18 17 17 17 18 18 18 18
17 17 17 17 17 17 17 17 17 17 17 17 17 17 17 17 17 17 17 17 17 17 18 17 17 17 17 17 17 17 17 17 17 17 17 17 17 17 17 17 17 17 17
17 17 17 17 17 17 17 17 17 17 17 17 17 17 17 17 17 17 17 17 17 17 17 17 17 17 17 17 17 17 17 17 17 17 17 17 17 17 17 17 17 17 17
17 17 17 17 17 17 17 17 17 17 17 17 17 17 17 17 17 17 17 17 17 17 17 17 17 17 17 17 17 17 17 17 17 17 17 17 17 17 17 17 17 17 17
17 17 17 17 17 17 17 17 17 17 17 17 17 17 17 17 17 17 17 17 17 17 17 17 17 17 17 17 17 17 17 17 17 17 17 17 17 17 17 17 17 17 17
17 17 17 17 17 17 17 17 17 17 17 16 16 16 16 17 17 17 17 17 17 17 17 17 17 17 17 16 16 16 16 17 17 17 17 17 17 17 17 17 17 17 17
17 17 17 17 17 17 17 16 16 16 16 16 16 16 16 16 16 16 16 16 16 16 16 16 16 16 16 16 16 16 16 16 16 17 17 17 17 17 17 17 17 17 17
17 17 17 17 17 16 16 16 16 16 16 16 16 16 16 16 16 16 16 16 16 16 16 16 16 16 16 16 16 16 16 16 16 16 16 16 16 17 17 17 17 17 17
17 17 17 17 17 16 16 16 16 16 16 16 16 16 16 16 16 16 16 16 16 16 16 16 16 16 16 16 16 16 16 16 16 16 16 16 16 16 16 16 16 16 16
17 17 17 17 16 16 16 16 16 16 16 16 16 16 16 16 16 16 16 16 16 16 16 16 16 16 16 16 16 16 16 16 16 16 16 16 16 16 16 16 16 16 16
17 17 17 17 16 16 16 16 16 16 16 16 16 16 15 16 16 15 15 15 16 16 16 16 15 15 15 15 15 15 16 16 16 16 16 16 16 16 16 16 16 16 16
17 17 16 16 16 16 16 16 16 16 16 15 15 15 15 15 15 15 15 15 15 15 15 15 15 15 15 15 15 15 15 15 15 15 16 16 16 16 16 16 16 15 15
17 17 17 16 16 16 16 16 16 16 15 15 15 15 15 15 15 15 15 15 15 15 15 15 15 15 15 15 15 15 15 15 15 15 15 15 15 15 15 15 15 15 15
17 17 17 16 16 16 16 16 16 16 15 15 15 15 15 15 15 15 15 15 15 15 15 15 15 15 15 15 15 15 15 15 15 15 15 15 15 15 15 15 15 15 15
17 17 16 16 16 16 16 16 16 15 15 15 15 15 15 15 15 15 15 15 15 15 15 15 15 15 15 15 15 14 14 14 14 14 14 14 15 15 15 15 15 15 15
17 17 16 16 16 16 16 16 16 15 15 15 15 15 15 15 15 15 15 15 15 15 15 15 15 15 15 14 14 14 14 14 14 14 14 14 14 14 14 14 14 14 14
17 17 17 16 16 16 16 15 15 15 15 15 15 15 14 14 14 14 14 14 14 14 14 14 14 14 14 14 14 14 14 14 14 14 14 14 14 14 14 14 14 14 14
17 17 17 16 16 16 16 15 15 15 15 14 14 14 14 14 14 14 14 14 14 14 14 14 14 14 14 14 14 13 13 13 13 13 13 13 13 13 13 14 14 14 14
17 17 16 16 16 16 15 15 15 15 14 14 14 14 14 14 14 14 14 14 14 14 14 14 14 14 14 14 13 13 13 13 13 13 13 13 13 13 13 13 13 13 13
17 17 16 16 16 15 15 15 15 14 14 14 14 14 13 13 13 13 13 13 13 13 13 14 14 14 14 13 13 13 13 12 12 13 13 13 13 13 13 13 13 13 13
17 17 16 16 16 15 15 15 15 14 14 14 14 13 13 13 13 13 13 13 13 13 13 13 13 13 13 13 13 13 13 13 12 12 12 12 12 12 12 12 12 12 12
17 16 16 16 15 15 15 15 15 14 14 13 13 13 13 13 13 12 13 13 13 13 13 13 13 13 13 13 13 12 12 12 12 12 12 12 12 12 12 12 12 12 12
16 16 16 15 15 15 15 14 14 14 14 13 13 13 13 12 12 12 12 12 12 12 12 12 12 12 12 12 12 12 12 12 12 12 12 11 11 12 12 12 12 12 12
Wind_Speed
0 1 5 8 9 9 10 11 12 12 12 12 12 13 13 13 13 13 13 12 12 12 12 12 11 11 11 11 10 11 11 10 10 9 9 9 8 8 8 8 8 7 9
4 3 6 8 9 10 10 11 12 12 12 12 12 12 13 13 12 12 12 12 11 11 11 11 11 11 11 11 11 10 10 10 9 8 8 8 8 8 9 9 9 8 9
5 5 7 8 9 10 10 11 11 11 12 12 12 12 12 12 12 12 12 11 11 11 11 11 11 10 11 11 10 10 9 9 9 8 7 6 7 8 8 9 9 9 8
7 6 8 9 10 10 11 11 11 11 11 12 12 12 12 12 12 12 12 11 11 11 11 11 10 10 10 10 9 9 9 9 9 8 7 5 5 8 9 8 8 8 8
7 7 8 10 10 10 11 11 10 10 11 11 11 12 12 11 11 11 11 11 11 11 11 10 10 10 10 10 9 8 8 9 9 9 7 6 6 8 8 8 8 8 8
6 7 9 10 10 10 10 10 10 10 10 10 10 11 10 10 10 10 10 11 11 11 10 10 9 9 9 9 9 8 9 9 9 8 7 6 6 8 8 8 7 7 7
6 7 8 9 9 9 9 10 10 10 10 10 10 10 10 10 10 10 10 10 10 10 9 9 8 8 8 8 9 9 9 9 8 7 6 6 7 8 8 8 7 7 7
7 6 7 8 9 9 9 9 9 9 9 9 9 9 8 9 9 9 9 9 9 8 8 8 8 8 8 8 8 9 9 9 8 7 6 5 7 9 9 8 8 8 8
7 6 5 6 7 7 8 8 8 8 8 7 7 7 7 8 8 8 7 8 8 7 7 7 8 7 7 7 8 8 9 9 7 5 5 5 7 8 9 8 8 8 8
5 4 4 4 4 5 5 6 7 7 6 6 5 5 6 6 6 6 6 6 6 6 6 6 6 7 7 8 8 8 9 9 7 5 4 5 7 8 8 8 7 8 8
4 3 3 3 3 3 4 4 4 5 5 4 4 4 4 4 4 4 4 5 5 5 5 5 6 6 7 8 8 8 8 6 6 4 4 6 6 7 7 8 8 8 8
4 3 3 3 3 3 2 3 3 3 3 3 3 3 3 3 3 3 4 4 4 5 5 5 6 6 6 6 7 7 6 6 5 4 4 6 7 7 7 8 8 8 8
5 4 4 3 3 3 2 3 3 2 3 3 2 4 4 3 3 4 4 4 4 4 4 5 5 5 5 5 5 5 5 5 5 4 4 6 7 7 7 7 7 8 8
5 4 4 4 3 3 4 3 2 2 2 2 2 3 3 2 2 2 2 2 3 3 3 3 3 4 5 5 5 5 5 5 4 4 5 7 7 7 6 6 6 7 8
5 4 4 5 5 4 3 3 3 2 2 2 3 3 4 2 1 1 1 2 2 2 2 2 3 3 4 4 5 5 5 5 5 5 5 7 7 6 6 6 6 6 7
4 4 4 5 5 5 3 3 2 3 3 4 4 4 5 4 2 2 2 2 2 2 3 4 4 3 3 4 5 5 4 5 5 4 4 5 6 5 5 5 5 6 6
4 4 5 6 5 5 4 3 3 4 5 4 4 5 6 5 4 3 2 2 2 3 4 5 5 5 4 4 4 4 4 4 4 4 4 4 4 5 4 4 5 5 5
5 4 4 5 5 4 4 3 4 4 5 4 5 6 6 6 6 5 3 2 3 4 4 3 3 4 4 4 4 3 3 4 4 4 4 4 4 4 4 4 3 3 4
6 6 5 4 5 4 4 4 4 4 4 4 5 5 5 6 7 6 3 3 4 4 3 3 3 3 3 3 3 3 3 3 3 4 4 4 4 4 4 5 4 3 3
7 7 5 4 4 4 3 3 3 4 3 4 4 4 5 5 6 6 4 3 4 3 3 3 3 3 2 2 4 4 3 3 3 3 3 3 4 4 4 4 4 3 3
6 7 6 5 4 4 3 2 2 2 2 2 3 4 5 5 5 5 3 3 3 3 2 3 3 3 2 2 4 3 4 4 3 3 3 3 3 4 4 4 4 3 3
6 5 5 5 4 4 3 2 2 2 2 2 2 4 5 5 4 4 3 2 2 2 3 3 3 2 1 2 2 2 2 4 4 4 3 2 2 3 3 4 4 4 3
6 6 6 5 4 4 4 3 3 3 3 3 3 2 3 4 4 4 3 3 2 2 2 1 2 3 2 1 2 3 2 1 1 3 3 3 2 2 2 3 3 3 3
7 6 6 6 5 4 4 5 5 4 2 1 1 1 2 4 4 4 3 3 2 2 2 1 2 2 3 1 1 1 2 3 2 1 3 3 3 2 2 2 2 3 3
7 7 6 6 5 4 4 5 5 4 2 1 1 2 2 3 4 4 3 3 2 2 2 1 1 2 2 2 1 1 1 2 2 2 1 3 3 3 2 2 2 2 3
6 6 6 6 4 4 5 5 5 5 4 3 2 2 1 1 2 3 4 3 3 2 1 1 1 1 1 2 1 1 2 2 1 2 2 1 2 3 3 2 2 2 2
Wind_Direction
246 96 79 81 78 76 77 77 78 78 77 79 80 81 78 78 79 80 82 84 86 87 87 84 85 90 92 93 96 96 97 100 103 102 103 104 103 105 109 110 110 105 109
161 121 93 91 87 83 81 80 82 82 82 82 82 81 81 80 78 78 80 83 85 86 86 85 84 87 87 89 92 92 91 94 96 96 100 102 103 106 108 113 114 109 107
128 112 101 94 91 89 85 84 84 85 85 85 85 83 83 83 81 79 79 80 83 84 85 85 85 85 86 85 86 86 86 89 91 89 93 97 104 111 113 113 114 110 107
124 112 105 98 92 92 91 88 87 85 84 85 86 86 84 83 82 81 81 79 80 82 85 84 84 84 84 85 83 82 85 83 83 84 82 85 100 111 112 112 114 113 111
118 113 111 104 98 95 94 93 91 89 88 87 87 86 84 82 81 80 82 80 77 79 82 80 81 82 84 83 79 81 85 85 82 80 81 78 91 110 113 112 112 113 110
117 117 114 107 101 98 96 96 95 94 93 91 90 90 87 84 82 82 82 81 78 78 82 81 80 83 85 81 74 80 86 86 83 82 83 85 97 112 116 115 115 115 114
119 117 115 111 107 104 101 99 97 97 99 96 93 92 91 89 86 84 83 84 80 79 81 78 76 80 82 79 75 78 85 88 87 87 84 88 100 108 109 116 117 116 113
128 123 120 115 109 106 104 104 101 99 100 99 96 95 94 94 91 88 88 87 83 78 78 75 74 78 77 72 73 75 78 83 88 85 81 91 106 109 107 105 110 112 113
123 121 121 121 114 110 109 108 108 104 102 99 98 97 97 96 95 92 89 90 88 83 77 74 73 74 74 71 70 72 70 75 81 86 91 101 113 113 112 111 110 112 108
121 126 128 132 123 120 122 116 108 104 101 99 96 96 100 97 93 92 92 93 92 87 81 77 72 69 70 71 69 68 65 66 72 76 90 108 111 113 114 114 114 116 115
134 142 140 144 145 141 139 127 113 103 101 96 92 96 94 86 82 83 85 86 86 80 76 75 72 65 67 68 69 65 61 65 70 68 84 99 106 113 114 111 113 119 116
159 169 158 151 153 155 136 105 93 83 88 84 84 85 91 88 81 87 81 77 76 70 67 68 64 62 62 58 58 55 61 68 70 68 83 94 103 111 111 109 111 111 111
162 163 170 158 153 143 110 112 97 82 79 77 86 93 95 84 73 75 70 58 64 62 54 48 46 50 60 60 57 55 61 74 73 68 78 92 99 105 111 111 114 114 114
134 149 154 158 139 133 124 112 105 93 80 77 72 93 101 81 69 82 78 67 65 67 64 59 60 52 57 61 65 68 67 69 71 72 74 84 90 95 102 109 113 114 114
139 147 147 141 139 130 110 104 102 101 101 95 80 84 106 95 78 80 84 86 74 76 81 75 71 67 64 64 70 74 71 68 70 72 69 74 78 86 95 102 109 115 115
143 142 143 133 134 125 111 109 106 104 99 85 76 79 96 104 92 80 86 88 79 75 86 91 87 85 72 71 63 66 73 73 73 80 77 70 70 76 88 96 106 112 114
141 130 132 128 118 117 117 115 102 95 90 79 75 74 82 91 92 87 85 82 75 83 87 85 75 75 70 66 57 54 63 68 70 71 71 65 60 62 76 94 103 114 114
139 125 124 123 117 113 108 101 90 86 88 79 76 68 69 80 86 86 78 67 75 87 91 91 78 76 64 61 58 46 48 55 57 66 64 62 64 57 54 71 96 108 128
145 135 123 118 122 117 105 100 92 84 81 80 79 71 68 77 89 90 80 68 76 82 79 93 81 90 81 67 68 55 43 44 41 60 56 55 61 60 52 50 58 72 94
142 136 128 125 131 127 107 91 80 67 62 70 71 69 76 81 86 89 84 69 71 76 67 76 85 73 91 91 81 58 35 27 35 42 45 59 59 56 56 50 47 46 65
135 135 139 138 135 128 114 109 100 82 58 50 54 63 77 83 86 89 83 76 75 81 89 94 93 82 64 73 77 49 22 23 29 28 37 52 51 52 53 52 56 51 49
148 146 137 133 136 136 140 149 136 127 102 83 52 50 61 72 79 92 83 80 81 81 73 84 96 94 69 69 100 91 30 5 7 19 20 41 33 44 48 50 53 58 57
149 154 151 145 142 136 128 109 90 71 56 46 42 29 29 66 80 90 95 96 94 95 109 109 113 118 128 17 76 123 135 205 311 350 4 18 15 18 26 50 55 57 65
160 151 144 143 139 136 131 128 128 126 128 168 147 48 16 46 68 81 90 96 102 100 106 127 118 121 131 143 19 60 142 157 156 326 340 350 0 12 4 32 40 55 63
154 149 149 141 136 136 133 135 134 129 132 121 88 70 42 25 46 63 79 85 94 94 91 84 88 112 124 143 155 130 89 75 103 144 259 330 345 341 349 10 36 46 61
150 148 149 146 149 146 132 132 140 141 133 119 103 93 58 27 26 43 70 78 85 86 79 84 88 110 112 122 137 145 151 148 167 144 173 266 309 318 339 360 32 34 48
Height
1526 1525 1524 1523 1522 1522 1521 1520 1520 1519 1519 1518 1518 1518 1518 1518 1517 1517 1517 1516 1516 1516 1516 1515 1515 1514 1515 1515 1516 1516 1517 1517 1518 1519 1519 1520 1521 1522 1522 1523 1524 1525 1525
1527 1526 1525 1524 1523 1522 1522 1521 1521 1520 1520 1520 1519 1519 1519 1519 1519 1518 1518 1518 1517 1517 1517 1516 1516 1515 1515 1516 1516 1517 1517 1518 1518 1519 1520 1521 1522 1522 1523 1524 1524 1525 1525
1527 1527 1526 1525 1524 1523 1523 1522 1522 1522 1521 1521 1521 1520 1520 1520 1520 1519 1519 1519 1518 1518 1518 1517 1517 1517 1517 1517 1517 1518 1518 1519 1519 1520 1520 1521 1522 1523 1524 1524 1525 1525 1526
1528 1527 1527 1526 1525 1524 1523 1523 1523 1523 1522 1522 1522 1521 1521 1521 1521 1520 1520 1520 1519 1519 1519 1518 1518 1518 1517 1518 1518 1519 1519 1520 1520 1521 1521 1522 1523 1524 1524 1525 1525 1526 1526
1529 1528 1527 1527 1526 1525 1525 1524 1524 1524 1523 1523 1523 1523 1522 1522 1522 1522 1521 1521 1520 1520 1520 1520 1519 1519 1518 1519 1520 1520 1520 1521 1521 1522 1522 1523 1523 1524 1525 1525 1526 1526 1526
1529 1529 1528 1528 1527 1526 1526 1525 1525 1525 1524 1524 1524 1524 1523 1523 1523 1523 1522 1522 1522 1521 1521 1521 1521 1520 1520 1520 1521 1521 1521 1521 1522 1523 1523 1523 1524 1524 1525 1525 1526 1526 1527
1530 1530 1529 1529 1528 1528 1527 1526 1526 1526 1526 1525 1525 1525 1524 1524 1524 1524 1524 1523 1523 1523 1523 1522 1522 1522 1522 1521 1521 1521 1522 1522 1523 1523 1524 1524 1525 1525 1525 1526 1526 1526 1527
1530 1530 1530 1530 1529 1529 1528 1528 1527 1527 1527 1527 1526 1526 1525 1525 1525 1525 1524 1524 1524 1524 1524 1524 1523 1523 1523 1523 1523 1522 1522 1523 1524 1524 1525 1525 1525 1525 1526 1526 1526 1526 1527
1532 1531 1531 1530 1530 1530 1529 1529 1528 1528 1528 1528 1527 1527 1527 1526 1526 1526 1526 1525 1525 1525 1525 1525 1525 1524 1524 1524 1524 1524 1523 1524 1525 1525 1525 1525 1526 1526 1526 1526 1526 1527 1527
1532 1532 1532 1531 1531 1531 1531 1530 1530 1529 1529 1529 1528 1528 1528 1527 1527 1527 1527 1526 1526 1526 1526 1526 1526 1525 1525 1525 1525 1525 1525 1525 1526 1526 1526 1526 1526 1526 1526 1526 1527 1527 1527
1533 1533 1532 1532 1532 1532 1532 1531 1531 1530 1530 1530 1529 1529 1528 1528 1528 1528 1527 1527 1527 1527 1527 1526 1526 1526 1526 1526 1526 1527 1527 1527 1527 1527 1527 1526 1526 1526 1527 1526 1526 1527 1527
1533 1533 1533 1533 1533 1533 1532 1532 1532 1531 1531 1531 1530 1530 1529 1529 1529 1529 1528 1528 1528 1528 1527 1527 1527 1527 1527 1527 1527 1528 1528 1528 1528 1528 1527 1527 1527 1527 1527 1527 1527 1527 1527
1533 1533 1534 1533 1533 1533 1533 1533 1532 1532 1531 1531 1531 1531 1530 1530 1530 1529 1529 1529 1529 1528 1528 1528 1528 1528 1528 1528 1528 1528 1528 1528 1528 1528 1528 1528 1528 1528 1528 1528 1528 1528 1528
1532 1533 1533 1533 1533 1533 1533 1533 1532 1532 1532 1532 1531 1531 1531 1530 1530 1530 1530 1530 1529 1529 1529 1529 1529 1529 1529 1529 1529 1529 1529 1529 1529 1529 1529 1529 1528 1528 1528 1528 1528 1528 1528
1532 1533 1533 1533 1534 1533 1533 1533 1533 1532 1532 1532 1531 1531 1531 1531 1530 1530 1530 1530 1530 1530 1530 1530 1529 1529 1529 1530 1530 1530 1530 1530 1530 1530 1529 1529 1529 1529 1529 1529 1528 1528 1529
1532 1532 1533 1533 1533 1533 1533 1533 1532 1532 1532 1532 1531 1531 1531 1531 1530 1530 1530 1530 1530 1530 1530 1530 1530 1530 1530 1530 1530 1530 1530 1530 1530 1530 1529 1529 1529 1529 1529 1529 1529 1529 1528
1532 1532 1532 1533 1533 1533 1533 1533 1533 1532 1532 1532 1532 1531 1531 1531 1530 1530 1530 1530 1530 1530 1530 1530 1530 1530 1530 1530 1530 1530 1530 1530 1530 1530 1529 1529 1529 1529 1529 1529 1529 1529 1529
1531 1531 1532 1533 1533 1533 1533 1532 1532 1532 1532 1532 1532 1531 1531 1531 1530 1530 1530 1530 1530 1530 1530 1530 1530 1530 1530 1530 1530 1531 1531 1531 1530 1530 1530 1529 1529 1529 1529 1529 1529 1529 1529
1530 1531 1531 1532 1532 1532 1532 1532 1532 1532 1531 1531 1531 1531 1531 1530 1530 1530 1530 1530 1530 1530 1530 1530 1530 1530 1530 1530 1530 1531 1531 1531 1530 1530 1530 1530 1529 1529 1529 1529 1529 1528 1528
1529 1530 1530 1530 1531 1531 1531 1531 1531 1531 1531 1531 1531 1531 1530 1530 1530 1530 1529 1529 1529 1529 1529 1530 1530 1530 1530 1530 1530 1530 1531 1531 1531 1530 1530 1530 1530 1529 1529 1529 1528 1528 1528
1528 1528 1529 1529 1530 1530 1530 1530 1530 1530 1530 1530 1530 1530 1530 1529 1529 1529 1529 1528 1528 1529 1529 1529 1529 1529 1530 1530 1530 1530 1531 1531 1531 1530 1530 1530 1530 1529 1529 1528 1528 1528 1527
1526 1527 1528 1528 1529 1529 1529 1529 1529 1529 1529 1529 1529 1529 1528 1528 1528 1528 1528 1528 1528 1528 1528 1528 1529 1529 1529 1529 1529 1529 1530 1532 1531 1530 1530 1530 1529 1529 1528 1528 1528 1527 1527
1525 1525 1526 1527 1527 1528 1528 1528 1528 1529 1528 1528 1528 1528 1527 1527 1527 1527 1527 1527 1527 1527 1527 1528 1528 1528 1528 1529 1529 1529 1530 1530 1530 1530 1530 1529 1529 1528 1528 1528 1527 1526 1526
1522 1524 1525 1525 1526 1527 1527 1527 1527 1527 1527 1527 1527 1527 1527 1527 1526 1526 1526 1526 1526 1526 1526 1527 1527 1527 1527 1527 1528 1528 1529 1529 1529 1529 1529 1529 1528 1528 1527 1527 1526 1526 1525
1521 1522 1523 1524 1525 1526 1526 1526 1526 1526 1526 1526 1526 1526 1526 1525 1525 1525 1524 1524 1525 1525 1525 1526 1526 1526 1526 1526 1527 1527 1527 1527 1527 1527 1527 1528 1527 1527 1526 1526 1525 1525 1524
1519 1521 1522 1523 1524 1524 1524 1525 1525 1525 1525 1525 1525 1525 1524 1524 1524 1524 1523 1523 1524 1524 1524 1524 1525 1525 1525 1525 1526 1526 1526 1526 1526 1526 1526 1526 1525 1526 1525 1524 1524 1523 1523